Voltar ao catálogo

STARLINK-2432

AtivoComunicaçõesVLEO
NORAD 47840·PAYLOAD·🇺🇸 United States

Lançado Mar 11, 2021 de Cape Canaveral Space Force Station

Loading…

Próximas Passagens (próximas 24 horas)

TLE

AtualizadoSource: CelesTrak SupGP

Época: Sep 15, 2026, 02:34 UTC

1 47840C 21018BF  26258.10743056 -.00021854  00000+0 -70261-3 0  2582
2 47840  53.1584  77.7078 0001026  82.1465 295.3247 15.31720731    15

Acompanhe STARLINK-2432 em tempo real com AllMySat

Download on the App Store